sat.trackr.live / text

‹ back to catalog

GSAT0219 (GALILEO 23)

NORAD 43566 · 2018-060C

PAYLOAD ACTIVE UNKNOWN

§ Identity

Operator
Country
ESA
Launch date
2018-07-25
Launch site
FRGUI
Launch vehicle
Mass (kg)
RCS (m²)

Purposes: earth_obs, nav

External: N2YO · Heavens-Above · Gunter

§ Orbital elements

Epoch: 2026-05-22T02:37:20.420832Z

Period
844.69 min
Inclination
57.1804°
Eccentricity
0.0002684
Mean motion
1.70475765 rev/d
Perigee alt
23,214.0 km
Apogee alt
23,229.9 km
Semi-major
29,600.1 km
B*
0.0000e+0
RAAN
342.4893°
Arg perigee
333.4673°
Mean anomaly
26.5384°
Rev number
4,874

§ Raw data

GSAT0219 (GALILEO 23)1 43566U 18060C   26142.10926413 -.00000087  00000+0  00000+0 0  99942 43566  57.1804 342.4893 0002684 333.4673  26.5384  1.70475765 48746

JSON: /api/v1/satellites/43566 · /tle

For live sub-satellite position, see the globe view (requires WebGL).

§ Visibility from observer

Set your observer location to see the next 7 days of passes ≥ 10°. The values pass through the URL so the page stays shareable.

No JS? Fill the form by hand. The geolocation button needs JavaScript.